DateTimeUTC,F1_A11,F1_S11,BsB_S11,BsG_S11,BsR_S11,BbsB_S11,BbsG_S11,BbsR_S11,BaB_A11,BaG_A11,BaR_A11,Tu_S11,T_S11,Uu_S11,U_S11,P_S11,T1_A11
2021-03-18T04:00:00Z,00040200,20000000,,,,,,,-000.03,0000.11,0000.16,17.2,24.2,04.3,02.8,0647.9,30.9
2021-03-18T04:01:00Z,00040200,20000000,,,,,,,0000.01,-000.47,0000.11,17.1,24.2,04.3,02.8,0647.9,30.9
2021-03-18T04:02:00Z,00040200,20000000,,,,,,,-000.04,0000.69,-000.00,17.1,24.2,04.6,03.0,0647.8,30.9
2021-03-18T04:03:00Z,00040200,60000000,,,,,,,0000.55,-000.49,0000.48,17.1,24.2,04.6,03.0,0647.8,30.9
2021-03-18T04:04:00Z,00040200,40000000,0000.51,0000.20,0000.36,-000.16,0000.34,-000.10,0000.00,0001.03,-000.13,17.2,24.0,04.7,03.1,0648.8,30.8
2021-03-18T04:05:00Z,00040200,00000000,0000.37,0000.26,0000.07,-000.11,0000.26,0000.19,0000.44,0000.09,0000.54,17.3,24.0,04.8,03.2,0648.6,30.8
2021-03-18T04:06:00Z,00040200,00000000,0000.42,0000.11,0000.34,-000.11,0000.06,-000.04,0000.90,0000.95,0000.42,17.3,24.0,05.0,03.3,0648.6,30.8
2021-03-18T04:07:00Z,00040200,00000000,0000.11,0000.19,0000.48,-000.06,0000.11,-000.05,0001.03,0000.48,0001.01,17.3,23.9,05.3,03.5,0648.3,30.8
2021-03-18T04:08:00Z,00040200,00000000,0000.22,0000.37,-000.03,0000.22,-000.09,-000.06,-000.09,0000.33,0000.03,17.3,23.9,05.7,03.8,0648.6,30.8
2021-03-18T04:09:00Z,00040200,00000000,0000.60,0000.08,0000.37,0000.22,0000.12,0000.09,0000.41,0000.79,0000.23,17.2,23.9,05.3,03.5,0648.6,30.8
2021-03-18T04:10:00Z,00040200,00000000,-000.01,0000.33,0000.42,0000.26,0000.36,0000.27,0001.71,0001.39,0001.41,17.2,23.9,05.8,03.8,0648.6,30.9
2021-03-18T04:11:00Z,00040200,00000000,0000.21,0000.67,0000.31,0001.12,-000.06,-000.08,0001.73,0001.51,0001.14,17.2,23.9,06.2,04.1,0648.3,30.8
2021-03-18T04:12:00Z,00040200,00000000,0000.64,0000.37,0000.34,-000.13,0000.00,-000.06,-000.45,-000.47,-000.41,17.2,23.9,06.3,04.2,0648.5,30.8
2021-03-18T04:13:00Z,00040200,00000000,0000.97,0000.21,0000.43,0000.39,0000.14,-000.25,0001.04,0001.19,0000.88,17.2,23.9,06.1,04.1,0648.5,30.8
2021-03-18T04:14:00Z,00040200,00000000,0000.40,0000.52,0000.26,0000.06,-000.02,0000.00,0000.91,0000.80,0000.92,17.2,23.9,06.4,04.2,0648.4,30.9
2021-03-18T04:15:00Z,00040200,00000000,-000.45,0000.65,0000.50,0000.20,0000.34,0000.22,0001.77,0001.50,0001.11,17.2,23.9,06.8,04.5,0648.5,30.8
2021-03-18T04:16:00Z,00040200,00000000,0000.06,0000.38,0000.38,0000.25,0000.09,0000.00,0000.25,0000.28,0000.45,17.2,23.8,06.8,04.5,0648.5,30.8
2021-03-18T04:17:00Z,00040200,00000000,0000.37,0000.40,0000.51,-000.17,0000.03,0000.17,0000.32,-000.48,-000.22,17.2,23.8,06.7,04.4,0648.5,30.8
2021-03-18T04:18:00Z,00040200,00000000,-000.07,0000.71,0000.54,0000.22,0000.26,0000.26,0002.83,0003.44,0002.27,17.2,23.8,07.8,05.2,0648.4,30.8
2021-03-18T04:19:00Z,00040200,00000000,0000.69,0000.54,0000.46,0000.26,0000.24,-000.00,0001.58,0001.38,0001.97,17.2,23.8,08.0,05.3,0648.4,30.8
2021-03-18T04:20:00Z,00040200,00000000,0000.92,0000.32,0000.47,0000.19,0000.32,-000.09,-000.26,-000.72,-000.92,17.2,23.8,07.9,05.2,0648.6,30.8
2021-03-18T04:21:00Z,00040200,00000000,0000.36,0000.43,0000.50,0000.46,0000.16,0000.25,0001.82,0001.83,0001.22,17.2,23.8,07.7,05.1,0648.6,30.8
2021-03-18T04:22:00Z,00040200,00000000,0000.58,0000.31,0000.52,-000.00,0000.19,0000.37,-000.18,0000.05,0000.23,17.1,23.8,07.9,05.3,0648.6,30.8
2021-03-18T04:23:00Z,00040200,00000000,0000.69,0000.48,0000.55,0000.27,0000.42,0000.15,0000.05,0000.07,0000.00,17.2,23.8,07.5,05.0,0648.4,30.8
2021-03-18T04:24:00Z,00040200,00000000,-000.19,0000.65,0000.22,-000.16,0000.27,0000.27,0001.27,0001.17,0001.49,17.2,23.8,07.7,05.1,0648.7,30.8
2021-03-18T04:25:00Z,00040200,00000000,0000.51,0000.50,0000.40,0000.28,0000.30,0000.12,0000.78,0000.48,0000.17,17.2,23.8,07.8,05.2,0648.5,30.8
2021-03-18T04:26:00Z,00040200,00000000,0000.41,0000.70,0000.60,0000.25,0000.37,0000.24,0001.63,0001.75,0001.47,17.3,23.8,08.0,05.3,0648.4,30.9
2021-03-18T04:27:00Z,00040200,00000000,0000.22,0000.47,0000.06,0000.09,-000.06,-000.19,0000.68,0000.37,0000.65,17.3,23.9,08.2,05.5,0648.4,30.9
2021-03-18T04:28:00Z,00040200,00000000,0000.66,0000.73,0000.89,0000.10,0000.22,0000.07,-000.03,0000.52,-000.04,17.3,23.8,08.2,05.5,0648.6,30.9
2021-03-18T04:29:00Z,00040200,00000000,0000.45,0000.59,0000.69,-000.07,0000.19,0000.28,0000.80,0000.72,0000.81,17.3,23.9,08.2,05.5,0648.6,30.9
2021-03-18T04:30:00Z,00040200,00000000,0000.77,0000.40,0000.67,0000.15,0000.01,0000.24,0001.99,0001.57,0001.38,17.3,23.9,08.2,05.5,0648.7,30.9
2021-03-18T04:31:00Z,00040200,00000000,0000.84,0000.27,0000.50,-000.05,0000.32,0000.27,0000.49,0000.94,0000.33,17.3,23.9,08.4,05.7,0648.7,30.9
2021-03-18T04:32:00Z,00040200,00000000,0000.83,0000.69,0000.46,0000.43,0000.04,0000.29,0000.95,0000.90,0001.24,17.4,23.9,08.6,05.7,0648.5,30.9
2021-03-18T04:33:00Z,00040200,00000000,0000.27,0000.50,0000.60,-000.09,0000.43,0000.15,-000.29,-000.28,-000.63,17.3,23.9,08.4,05.6,0648.4,30.9
2021-03-18T04:34:00Z,00040200,00000000,0000.54,0000.44,0000.48,0000.94,0000.14,0000.01,0000.81,0000.42,0000.64,17.4,23.9,08.4,05.6,0648.7,30.9
2021-03-18T04:35:00Z,00040200,00000000,0000.10,0000.36,0000.55,-000.06,0000.14,0000.11,0000.99,0001.13,0000.84,17.3,23.9,08.0,05.4,0648.4,30.9
2021-03-18T04:36:00Z,00040200,00000000,0000.36,0000.62,0000.68,0000.20,0000.26,0000.08,0000.12,-000.11,0000.10,17.3,23.9,08.1,05.4,0648.5,30.9
2021-03-18T04:37:00Z,00040200,00000000,0000.63,0000.50,0000.54,0000.21,0000.29,0000.10,-000.67,-000.45,-000.46,17.3,23.9,08.0,05.3,0648.4,30.9
2021-03-18T04:38:00Z,00040200,00000000,0000.34,0000.33,0000.75,0000.20,0000.24,0000.09,0000.46,0000.44,0000.84,17.3,23.9,08.0,05.3,0648.5,30.9
2021-03-18T04:39:00Z,00040200,00000000,0000.47,0000.75,0000.34,-000.03,0000.23,-000.13,-000.15,-000.02,-000.32,17.3,23.8,07.9,05.3,0648.7,30.9
2021-03-18T04:40:00Z,00040200,00000000,0000.79,0000.79,0000.78,-000.14,0000.31,0000.23,0001.27,0000.76,0000.86,17.4,23.9,07.9,05.3,0648.7,30.9
2021-03-18T04:41:00Z,00040200,00000000,0000.63,0000.60,0000.48,0000.25,0000.37,0000.28,0001.82,0001.86,0001.72,17.4,23.9,08.1,05.4,0648.8,30.9
2021-03-18T04:42:00Z,00040200,00000000,0000.67,0000.50,0000.40,0000.40,0000.30,0000.14,-001.45,-001.06,-001.06,17.4,23.9,08.2,05.5,0648.7,30.9
2021-03-18T04:43:00Z,00040200,00000000,0000.43,0000.46,0000.56,0000.15,0000.05,-000.06,0000.99,0001.00,0000.61,17.5,23.9,07.8,05.2,0648.4,30.9
2021-03-18T04:44:00Z,00040200,00000000,0000.47,0000.61,0000.74,0000.24,0000.30,0000.25,0000.07,0000.07,0000.80,17.5,23.9,07.8,05.2,0648.7,30.9
2021-03-18T04:45:00Z,00040200,00000000,0000.51,0000.44,0000.47,0000.58,0000.09,0000.19,0000.53,0000.63,-000.10,17.5,24.0,07.9,05.3,0648.9,30.9
2021-03-18T04:46:00Z,00040200,00000000,0001.17,0000.73,0000.27,0000.38,0000.09,-000.03,0002.26,0001.82,0001.54,17.4,24.0,08.1,05.4,0648.6,30.9
2021-03-18T04:47:00Z,00040200,00000000,0001.00,0000.62,0000.41,-000.04,0000.29,-000.13,-001.03,-000.56,-000.36,17.4,24.0,08.4,05.6,0648.5,30.9
2021-03-18T04:48:00Z,00040200,00000000,0000.42,0000.40,0000.74,0000.42,0000.32,0000.09,0000.66,0000.70,0000.63,17.5,24.0,08.3,05.5,0648.3,30.9
2021-03-18T04:49:00Z,00040200,00000000,0001.04,0000.63,0000.67,0000.34,0000.28,0000.22,0001.27,0000.70,0000.87,17.4,23.9,08.3,05.6,0648.6,30.9
2021-03-18T04:50:00Z,00040200,00000000,0000.94,0000.69,0000.67,0000.56,-000.02,0000.41,0000.83,0001.30,0000.77,17.4,24.0,08.7,05.8,0648.3,30.9
2021-03-18T04:51:00Z,00040200,00000000,0000.56,0000.43,0000.58,0000.20,0000.03,0000.05,0000.74,0000.83,0000.82,17.4,24.0,08.7,05.8,0648.4,30.9
2021-03-18T04:52:00Z,00040200,00000000,0000.88,0000.36,0000.63,0000.31,0000.21,0000.25,0000.25,0000.13,-000.06,17.4,24.0,08.4,05.6,0648.6,30.9
2021-03-18T04:53:00Z,00040200,00000000,0000.19,0000.43,0000.67,0000.22,0000.08,0000.05,0000.13,-000.16,0000.32,17.4,23.9,08.3,05.6,0648.5,30.9
2021-03-18T04:54:00Z,00040200,00000000,0000.46,0001.06,0000.71,0000.05,0000.28,0000.12,0001.84,0001.89,0001.58,17.4,23.9,08.4,05.6,0648.7,30.9
2021-03-18T04:55:00Z,00040200,00000000,0000.83,0001.36,0001.19,0000.37,0000.26,0000.14,0001.24,0001.08,0000.71,17.4,24.0,08.5,05.7,0648.6,30.9
2021-03-18T04:56:00Z,00040200,00000000,0000.24,0000.34,0000.69,0000.34,0000.05,0000.03,0000.33,0000.35,0000.05,17.5,24.0,08.5,05.7,0648.6,30.9
2021-03-18T04:57:00Z,00040200,40000000,,,,,,,-000.82,-001.28,-000.59,17.5,24.0,08.8,05.9,0648.5,30.9
2021-03-18T04:58:00Z,00040200,60000000,,,,,,,0000.18,0000.54,0000.03,17.3,24.1,08.3,05.4,0647.5,30.9
2021-03-18T04:59:00Z,00040200,20000000,,,,,,,-000.42,-000.58,0000.42,17.3,24.2,08.3,05.4,0647.6,30.9
